Change the Weather History Date:

Saturday, January 13, 2007

  Actual Average Record
Temperature  
Mean Temperature 11 °F -  
Max Temperature 14 °F 35 °F 58 °F (1980)
Min Temperature 8 °F 12 °F -11 °F (1964)
Degree Days  
Heating Degree Days 54    
Moisture  
Dew Point 4 °F    
Average Humidity 78    
Maximum Humidity 92    
Minimum Humidity 67    
Precipitation  
Precipitation 0.00 in - - ()
Sea Level Pressure  
Sea Level Pressure 30.38 in    
Wind  
Wind Speed 11 mph (North)    
Max Wind Speed 18 mph    
Max Gust Speed 23 mph    
Visibility 9 miles    
Events Snow    
Averages and records for this station are not official NWS values.
T = Trace of Precipitation, MM = Missing Value Source: NWS Daily Summary

Daily Weather History Graph

Daily Weather History Graph

Search for Another Location

Airport or City:

Trip Planner

Search our weather history database for the weather conditions in past years. The results will help you decide how hot, cold, wet, or windy it might be!

Date:

Astronomy

Jan. 13, 2007 Rise Set
Actual Time 7:48 AM CST 5:23 PM CST
Civil Twilight 7:18 AM CST 5:53 PM CST
Nautical Twilight 6:44 AM CST 6:26 PM CST
Astronomical Twilight 6:12 AM CST 6:59 PM CST
Moon 2:43 AM CST (1/13) 12:33 PM CST (1/13)
Length of Visible Light 10h 34m
Length of Day
9h 34m
Waning Crescent, 29% of the Moon is Illuminated
Jan 13
Waning Crescent
Jan 18
New
Jan 25
First Quarter
Feb 1
Full
Feb 10
Last Quarter

Hourly Weather History & Observations

Time (CST) Temp. Windchill Dew Point Humidity Pressure Visibility Wind Dir Wind Speed Gust Speed Precip Events Conditions
12:10 AM 8.6 °F -7.7 °F 1.4 °F 73% 30.45 in 10.0 mi North 13.8 mph - N/A   Overcast
12:30 AM 8.6 °F -8.3 °F -0.4 °F 67% 30.45 in 10.0 mi NNE 15.0 mph - N/A   Overcast
12:50 AM 8.6 °F -7.7 °F -0.4 °F 67% 30.45 in 10.0 mi North 13.8 mph - N/A   Overcast
1:10 AM 8.6 °F -6.3 °F 1.4 °F 73% 30.44 in 10.0 mi North 11.5 mph - N/A   Overcast
1:30 AM 8.6 °F -7.7 °F -0.4 °F 67% 30.44 in 10.0 mi North 13.8 mph - N/A   Overcast
1:50 AM 8.6 °F -7.0 °F 1.4 °F 73% 30.43 in 10.0 mi North 12.7 mph - N/A   Overcast
2:10 AM 8.6 °F -7.7 °F 1.4 °F 73% 30.44 in 10.0 mi North 13.8 mph - N/A   Overcast
2:30 AM 8.6 °F -6.3 °F 1.4 °F 73% 30.46 in 10.0 mi North 11.5 mph - N/A   Overcast
2:50 AM 8.6 °F -7.0 °F -0.4 °F 67% 30.44 in 10.0 mi North 12.7 mph - N/A   Overcast
3:10 AM 8.6 °F -7.0 °F 1.4 °F 73% 30.44 in 10.0 mi North 12.7 mph - N/A   Overcast
3:30 AM 8.6 °F -9.5 °F 1.4 °F 73% 30.41 in 10.0 mi NNE 17.3 mph 21.9 mph N/A   Overcast
3:50 AM 8.6 °F -7.0 °F 1.4 °F 73% 30.38 in 10.0 mi NNE 12.7 mph 23.0 mph N/A   Overcast
4:10 AM 8.6 °F -4.7 °F 1.4 °F 73% 30.41 in 10.0 mi NNE 9.2 mph - N/A   Overcast
4:30 AM 8.6 °F -4.7 °F 1.4 °F 73% 30.42 in 10.0 mi North 9.2 mph - N/A   Overcast
4:50 AM 8.6 °F -5.5 °F 1.4 °F 73% 30.44 in 10.0 mi North 10.4 mph - N/A   Overcast
5:10 AM 8.6 °F -6.3 °F 1.4 °F 73% 30.41 in 10.0 mi North 11.5 mph - N/A   Overcast
5:30 AM 8.6 °F -8.3 °F 1.4 °F 73% 30.43 in 10.0 mi North 15.0 mph - N/A   Overcast
5:50 AM 8.6 °F -7.0 °F 1.4 °F 73% 30.42 in 10.0 mi North 12.7 mph - N/A   Overcast
6:10 AM 8.6 °F -6.3 °F 1.4 °F 73% 30.42 in 10.0 mi North 11.5 mph 17.3 mph N/A   Overcast
6:30 AM 8.6 °F -8.9 °F 1.4 °F 73% 30.42 in 10.0 mi North 16.1 mph - N/A   Overcast
6:50 AM 8.6 °F -10.0 °F 1.4 °F 73% 30.41 in 10.0 mi North 18.4 mph 21.9 mph N/A   Overcast
7:10 AM 8.6 °F -7.7 °F 3.2 °F 79% 30.41 in 5.0 mi North 13.8 mph - N/A Snow Light Snow
7:30 AM 8.6 °F -6.3 °F 3.2 °F 79% 30.40 in 7.0 mi North 11.5 mph 17.3 mph N/A Snow Light Snow
7:50 AM 8.6 °F -6.3 °F 3.2 °F 79% 30.40 in 7.0 mi NNE 11.5 mph - N/A Snow Light Snow
8:10 AM 8.6 °F -6.3 °F 3.2 °F 79% 30.41 in 7.0 mi North 11.5 mph - N/A Snow Light Snow
8:30 AM 8.6 °F -5.5 °F 3.2 °F 79% 30.39 in 10.0 mi NNE 10.4 mph 16.1 mph N/A Snow Light Snow
8:50 AM 8.6 °F -5.5 °F 3.2 °F 79% 30.40 in 10.0 mi North 10.4 mph - N/A   Overcast
9:10 AM 8.6 °F -6.3 °F 3.2 °F 79% 30.38 in 10.0 mi NNE 11.5 mph 17.3 mph N/A   Overcast
9:30 AM 8.6 °F -7.0 °F 3.2 °F 79% 30.38 in 10.0 mi NNE 12.7 mph - N/A   Overcast
9:50 AM 8.6 °F -5.5 °F 3.2 °F 79% 30.38 in 10.0 mi NNE 10.4 mph - N/A   Overcast
10:10 AM 10.4 °F -1.5 °F 3.2 °F 73% 30.40 in 10.0 mi NNE 8.1 mph - N/A   Overcast
10:30 AM 10.4 °F 0.8 °F 5.0 °F 79% 30.42 in 10.0 mi North 5.8 mph - N/A   Overcast
10:50 AM 10.4 °F -1.5 °F 5.0 °F 79% 30.42 in 10.0 mi North 8.1 mph - N/A   Overcast
11:10 AM 10.4 °F 0.8 °F 5.0 °F 79% 30.42 in 7.0 mi North 5.8 mph - N/A   Overcast
11:30 AM 10.4 °F -0.4 °F 5.0 °F 79% 30.40 in 10.0 mi North 6.9 mph - N/A   Overcast
11:50 AM 10.4 °F 0.8 °F 5.0 °F 79% 30.39 in 10.0 mi North 5.8 mph - N/A   Overcast
12:11 PM 10.4 °F -2.4 °F 5.0 °F 79% 30.38 in 10.0 mi North 9.2 mph - N/A   Overcast
12:30 PM 10.4 °F 0.8 °F 5.0 °F 79% 30.37 in 10.0 mi North 5.8 mph - N/A   Overcast
12:50 PM 10.4 °F -0.4 °F 5.0 °F 79% 30.36 in 10.0 mi North 6.9 mph - N/A   Overcast
1:10 PM 10.4 °F -2.4 °F 5.0 °F 79% 30.33 in 10.0 mi North 9.2 mph - N/A   Overcast
1:30 PM 12.2 °F 1.7 °F 5.0 °F 73% 30.33 in 10.0 mi North 6.9 mph - N/A   Overcast
1:50 PM 12.2 °F 0.7 °F 6.8 °F 79% 30.32 in 10.0 mi North 8.1 mph - N/A   Overcast
2:10 PM 12.2 °F 1.7 °F 6.8 °F 79% 30.31 in 7.0 mi NNE 6.9 mph - N/A Snow Light Snow
2:30 PM 12.2 °F 1.7 °F 8.6 °F 85% 30.30 in 7.0 mi NNE 6.9 mph - N/A Snow Light Snow
2:50 PM 12.2 °F 1.7 °F 8.6 °F 85% 30.30 in 10.0 mi North 6.9 mph - N/A   Overcast
3:10 PM 12.2 °F 1.7 °F 8.6 °F 85% 30.30 in 10.0 mi North 6.9 mph - N/A   Overcast
3:30 PM 14.0 °F 2.9 °F 8.6 °F 79% 30.29 in 10.0 mi NNE 8.1 mph - N/A Snow Light Snow
3:50 PM 12.2 °F 0.7 °F 8.6 °F 85% 30.28 in 7.0 mi North 8.1 mph - N/A   Overcast
4:10 PM 12.2 °F 0.7 °F 10.4 °F 92% 30.29 in 5.0 mi North 8.1 mph - N/A Snow Light Snow
4:30 PM 12.2 °F 0.7 °F 10.4 °F 92% 30.28 in 5.0 mi North 8.1 mph - N/A Snow Light Snow
4:50 PM 12.2 °F 2.9 °F 10.4 °F 92% 30.28 in 7.0 mi North 5.8 mph - N/A Snow Light Snow
5:10 PM 12.2 °F 2.9 °F 10.4 °F 92% 30.29 in 3.0 mi North 5.8 mph - N/A Snow Light Snow
5:30 PM 12.2 °F 0.7 °F 10.4 °F 92% 30.29 in 4.0 mi North 8.1 mph - N/A Snow Light Snow
5:50 PM 12.2 °F -0.2 °F 10.4 °F 92% 30.29 in 3.0 mi North 9.2 mph - N/A Snow Light Snow
6:10 PM 12.2 °F 0.7 °F 10.4 °F 92% 30.29 in 7.0 mi North 8.1 mph - N/A Snow Light Snow
6:30 PM 12.2 °F 1.7 °F 10.4 °F 92% 30.28 in 5.0 mi North 6.9 mph - N/A Snow Light Snow
6:50 PM 12.2 °F 2.9 °F 10.4 °F 92% 30.29 in 4.0 mi NNE 5.8 mph - N/A Snow Light Snow
7:10 PM 12.2 °F 0.7 °F 10.4 °F 92% 30.28 in 5.0 mi NNE 8.1 mph - N/A Snow Light Snow
7:30 PM 12.2 °F 1.7 °F 10.4 °F 92% 30.28 in 5.0 mi NE 6.9 mph - N/A Snow Light Snow
7:50 PM 12.2 °F 2.9 °F 10.4 °F 92% 30.29 in 5.0 mi NE 5.8 mph - N/A Snow Light Snow
8:10 PM 12.2 °F 2.9 °F 10.4 °F 92% 30.29 in 3.0 mi NE 5.8 mph - N/A Snow Light Snow
8:30 PM 12.2 °F 2.9 °F 10.4 °F 92% 30.29 in 3.0 mi NNE 5.8 mph - N/A Snow Light Snow
8:50 PM 12.2 °F 2.9 °F 10.4 °F 92% 30.29 in 5.0 mi NNE 5.8 mph - N/A Snow Light Snow
9:10 PM 12.2 °F 2.9 °F 10.4 °F 92% 30.29 in 4.0 mi North 5.8 mph - N/A Snow Light Snow
9:30 PM 12.2 °F 1.7 °F 10.4 °F 92% 30.28 in 4.0 mi North 6.9 mph - N/A Snow Light Snow
9:50 PM 12.2 °F 1.7 °F 10.4 °F 92% 30.28 in 4.0 mi North 6.9 mph - N/A Snow Light Snow
10:10 PM 12.2 °F 1.7 °F 10.4 °F 92% 30.29 in 4.0 mi North 6.9 mph - N/A Snow Light Snow
10:30 PM 12.2 °F -0.2 °F 10.4 °F 92% 30.29 in 4.0 mi North 9.2 mph - N/A Snow Light Snow
10:50 PM 12.2 °F 1.7 °F 10.4 °F 92% 30.29 in 4.0 mi North 6.9 mph - N/A Snow Light Snow
11:10 PM 12.2 °F 0.7 °F 10.4 °F 92% 30.29 in 4.0 mi North 8.1 mph - N/A Snow Light Snow
11:30 PM 12.2 °F 0.7 °F 10.4 °F 92% 30.28 in 5.0 mi North 8.1 mph - N/A Snow Light Snow
11:50 PM 12.2 °F 1.7 °F 10.4 °F 92% 30.29 in 5.0 mi North 6.9 mph - N/A   Overcast